Location: Alameda County Fairgrounds
(37.6619°N, 121.8872°W)
Time: 20:43:44
(UTC+00:00)

Daily predictions for brighter satellites

Satellite Brightness Start Highest point End
(mag) Time Altitude Azimuth Time Altitude Azimuth Time Altitude Azimuth
Cosmos 1242 Rocket 4.0 12:01:49 10° N 12:05:04 38° ENE 12:08:18 10° SSE
Cosmos 1656 3.7 12:00:06 10° NNW 12:05:22 54° WSW 12:10:39 10° S
Cosmos 1954 Rocket 4.3 12:00:52 10° SSW 12:05:56 54° WNW 12:11:08 10° N
GOES 2 Rocket 4.5 12:00:52 10° WSW 12:06:18 30° S 12:10:40 10° SE
Lacrosse 5 4.1 12:04:44 10° WNW 12:07:53 16° NNW 12:11:03 10° NNE
Cosmos 1908 Rocket 3.6 12:06:14 10° S 12:10:41 89° W 12:15:11 10° N
ASTRO E2 3.5 12:07:16 10° WSW 12:10:47 33° S 12:14:21 10° ESE
CZ-2C R/B 2.6 12:06:31 10° NNE 12:11:24 75° E 12:16:05 10° S
Cosmos 1536 4.1 12:09:51 10° SW 12:13:13 25° WNW 12:16:35 10° NNW
Meteor 1-23 Rocket 4.3 12:08:53 10° NNW 12:14:33 67° W 12:20:15 10° S
Cosmos 1975 3.6 12:13:43 10° S 12:17:37 55° E 12:21:32 10° NNE
Cosmos 1733 Rocket 4.2 12:14:10 10° SW 12:17:46 25° WNW 12:21:23 10° NNW
Cosmos 1980 Rocket 2.9 12:19:22 10° NNW 12:25:02 61° ENE 12:30:38 10° SE
